CRYOSAT 2

Last updated on Sun Oct 26 2025 00:03:43 GMT+0000 (Coordinated Universal Time)

1 36508U 10013A 25298.47786654 .00000307 00000+0 75446-4 0 9999 2 36508 92.0247 220.4880 0002561 82.6693 277.4805 14.51908444824029
UTC large
Height (km)
Speed (km/s)
/
Latitude / Longitude
Inclination (degrees)
Orbital Period (minutes)
Azimuth
Elevation
Range (km)
Doppler Factor

Next 0 passes for location: London (51.5072 / 0.1276)

Sorry there are no passes over London.